This is the latest recevied weather packets stored in our database for station/object EA7OC-10. If no packets are shown the sender has not sent any weather packets the latest 10 day(s).
| Time | Temp. | Humidity | Pressure | Rain* | Wind** | Luminosity | Snow |
|---|---|---|---|---|---|---|---|
| 1787863071 | 25.56° C | 33% | 1019.4 hPa | - | - | - | - |
| 1787862171 | 26.11° C | 33% | 1019.1 hPa | - | - | - | - |
| 1787861271 | 26.11° C | 33% | 1018.7 hPa | - | - | - | - |
| 1787860371 | 26.11° C | 33% | 1018.5 hPa | - | - | - | - |
| 1787859471 | 26.67° C | 33% | 1018.3 hPa | - | - | - | - |
| 1787858571 | 26.67° C | 33% | 1018 hPa | - | - | - | - |
| 1787857671 | 26.67° C | 33% | 1017.7 hPa | - | - | - | - |
| 1787856771 | 27.22° C | 33% | 1017.3 hPa | - | - | - | - |
| 1787855871 | 27.78° C | 33% | 1017.2 hPa | - | - | - | - |
| 1787854970 | 28.33° C | 33% | 1017 hPa | - | - | - | - |
| 1787854070 | 28.89° C | 32% | 1016.9 hPa | - | - | - | - |
| 1787853170 | 29.44° C | 32% | 1016.9 hPa | - | - | - | - |
| 1787852270 | 29.44° C | 33% | 1016.7 hPa | - | - | - | - |
| 1787851370 | 29.44° C | 33% | 1016.7 hPa | - | - | - | - |
| 1787850470 | 29.44° C | 33% | 1016.8 hPa | - | - | - | - |
| 1787849570 | 30° C | 33% | 1016.7 hPa | - | - | - | - |
| 1787848670 | 31.11° C | 32% | 1016.7 hPa | - | - | - | - |
| 1787847770 | 32.22° C | 33% | 1016.5 hPa | - | - | - | - |
| 1787846869 | 31.67° C | 32% | 1016.5 hPa | - | - | - | - |
| 1787845969 | 31.67° C | 32% | 1016.5 hPa | - | - | - | - |
| 1787845069 | 32.78° C | 33% | 1016.4 hPa | - | - | - | - |
| 1787844169 | 32.78° C | 33% | 1016.5 hPa | - | - | - | - |
| 1787843269 | 32.78° C | 33% | 1016.5 hPa | - | - | - | - |
| 1787842369 | 32.78° C | 33% | 1016.6 hPa | - | - | - | - |
| 1787841469 | 33.89° C | 33% | 1016.7 hPa | - | - | - | - |
* Rain since midnight (hover to see other rain measurements)
** Current wind speed in m/s (hover to see current wind gust speed)